Date String (YYYY-MM-DD hh:mm:ss) UTC,Instrument flags,Ambient pressure (hPa),Sample flow (lpm),Bypass flow (lpm),Sample temperature (°C),Ambient temperature (°C),ASC tube jacket temperature (°C),LED temperature (°C),Box temperature (°C),Sample RH (%),Span deviation,Mass concentration (μg/m³),Mass concentration (μg/m³),Mass concentration (μg/m³)
DateTimeUTC,F1_M11,P_M11,Q1_M11,Q2_M11,T1_M11,T2_M11,T3_M11,T4_M11,T5_M11,U1_M11,ZSPAN_M11,X2_M11,X0_M11,X1_M11
2022-11-23 20:00:00,,0819.2,5.00,0.00,21.9,20.4,00.0,30.9,23.5,07.8,0000.0,0001.38,0002.37,0001.16
2022-11-23 20:01:00,,0819.3,5.00,0.00,21.9,20.4,00.0,30.9,23.5,07.7,0000.0,0001.37,0002.07,0001.16
2022-11-23 20:02:00,,0819.2,5.00,0.00,21.9,20.4,00.0,30.9,23.6,07.4,0000.0,0001.36,0002.63,0001.15
2022-11-23 20:03:00,,0819.3,5.00,0.00,21.9,20.4,00.0,30.9,23.6,07.0,0000.0,0001.35,0002.61,0001.16
2022-11-23 20:04:00,,0819.4,5.00,0.00,21.9,20.3,00.0,30.9,23.5,07.2,0000.0,0001.35,0002.62,0001.15
2022-11-23 20:05:00,,0819.4,5.00,0.00,21.8,20.3,00.0,30.8,23.5,07.5,0000.0,0001.35,0002.65,0001.16
2022-11-23 20:06:00,,0819.4,5.00,0.00,21.8,20.3,00.0,30.8,23.4,07.6,0000.0,0001.36,0002.64,0001.16
2022-11-23 20:07:00,,0819.3,5.00,0.00,21.8,20.3,00.0,30.8,23.5,08.2,0000.0,0001.34,0002.64,0001.16
2022-11-23 20:08:00,,0819.4,5.00,0.00,21.8,20.3,00.0,30.8,23.4,07.6,0000.0,0001.37,0002.76,0001.15
2022-11-23 20:09:00,,0819.3,5.00,0.00,21.8,20.3,00.0,30.8,23.4,08.0,0000.0,0001.37,0002.77,0001.15
2022-11-23 20:10:00,,0819.4,5.00,0.00,21.8,20.3,00.0,30.8,23.4,07.9,0000.0,0001.39,0002.84,0001.16
2022-11-23 20:11:00,,0819.4,5.00,0.00,21.8,20.3,00.0,30.8,23.4,08.1,0000.0,0001.44,0003.01,0001.16
2022-11-23 20:12:00,,0819.5,4.99,0.00,21.7,20.3,00.0,30.8,23.3,08.0,0000.0,0001.46,0002.81,0001.17
2022-11-23 20:13:00,,0819.4,5.00,0.00,21.7,20.2,00.0,30.8,23.3,08.4,0000.0,0001.45,0002.28,0001.17
2022-11-23 20:14:00,,0819.5,5.00,0.00,21.7,20.3,00.0,30.8,23.4,08.0,0000.0,0001.46,0002.28,0001.16
2022-11-23 20:15:00,,0819.5,5.00,0.00,21.7,20.3,00.0,30.7,23.4,07.6,0000.0,0001.45,0002.30,0001.16
2022-11-23 20:16:00,,0819.4,4.99,0.00,21.7,20.3,00.0,30.7,23.3,08.3,0000.0,0001.44,0002.30,0001.15
2022-11-23 20:17:00,,0819.4,5.00,0.00,21.7,20.3,00.0,30.7,23.5,08.3,0000.0,0001.43,0002.27,0001.13
2022-11-23 20:18:00,,0819.4,5.00,0.00,21.7,20.3,00.0,30.7,23.4,08.6,0000.0,0001.42,0002.29,0001.12
2022-11-23 20:19:00,,0819.3,5.00,0.00,21.7,20.3,00.0,30.7,23.4,08.7,0000.0,0001.37,0002.17,0001.12
2022-11-23 20:20:00,,0819.3,5.00,0.00,21.7,20.3,00.0,30.7,23.3,08.5,0000.0,0001.36,0002.17,0001.10
2022-11-23 20:21:00,,0819.3,5.00,0.00,21.7,20.3,00.0,30.7,23.3,08.4,0000.0,0001.31,0002.09,0001.09
2022-11-23 20:22:00,,0819.3,5.00,0.00,21.7,20.3,00.0,30.7,23.4,07.5,0000.0,0001.28,0001.94,0001.08
2022-11-23 20:23:00,,0819.4,5.01,0.00,21.7,20.3,00.0,30.7,23.4,08.0,0000.0,0001.23,0001.82,0001.06
2022-11-23 20:24:00,,0819.4,5.00,0.00,21.7,20.3,00.0,30.7,23.4,08.6,0000.0,0001.22,0001.79,0001.03
2022-11-23 20:25:00,,0819.4,5.00,0.00,21.7,20.4,00.0,30.7,23.4,08.5,0000.0,0001.21,0001.78,0001.02
2022-11-23 20:26:00,,0819.4,4.99,0.00,21.7,20.4,00.0,30.7,23.4,09.0,0000.0,0001.23,0001.85,0001.01
2022-11-23 20:27:00,,0819.4,4.99,0.00,21.7,20.4,00.0,30.7,23.5,08.5,0000.0,0001.26,0001.81,0001.01
2022-11-23 20:28:00,,0819.3,4.99,0.00,21.7,20.4,00.0,30.6,23.5,08.4,0000.0,0001.27,0001.94,0001.01
2022-11-23 20:29:00,,0819.3,5.02,0.00,21.7,20.4,00.0,30.6,23.5,08.7,0000.0,0001.23,0001.83,0001.00
2022-11-23 20:30:00,,0819.3,5.00,0.00,21.7,20.5,00.0,30.6,23.5,09.2,0000.0,0001.22,0001.80,0000.99
2022-11-23 20:31:00,,0819.3,4.99,0.00,21.7,20.4,00.0,30.6,23.5,08.6,0000.0,0001.23,0001.81,0000.99
2022-11-23 20:32:00,,0819.2,5.00,0.00,21.7,20.4,00.0,30.6,23.5,08.7,0000.0,0001.22,0001.85,0000.99
2022-11-23 20:33:00,,0819.2,5.02,0.00,21.7,20.4,00.0,30.7,23.5,09.0,0000.0,0001.18,0001.82,0000.98
2022-11-23 20:34:00,,0819.2,5.00,0.00,21.7,20.4,00.0,30.7,23.4,08.7,0000.0,0001.17,0001.84,0000.97
2022-11-23 20:35:00,,0819.3,4.99,0.00,21.7,20.4,00.0,30.7,23.4,08.1,0000.0,0001.17,0001.84,0000.96
2022-11-23 20:36:00,,0819.4,5.00,0.00,21.7,20.4,00.0,30.7,23.5,08.7,0000.0,0001.17,0001.89,0000.96
2022-11-23 20:37:00,,0819.3,5.01,0.00,21.7,20.4,00.0,30.7,23.5,08.2,0000.0,0001.16,0001.86,0000.95
2022-11-23 20:38:00,,0819.3,5.00,0.00,21.7,20.4,00.0,30.7,23.4,08.2,0000.0,0001.13,0001.89,0000.94
2022-11-23 20:39:00,,0819.4,5.00,0.00,21.7,20.4,00.0,30.7,23.4,08.5,0000.0,0001.09,0001.71,0000.92
2022-11-23 20:40:00,,0819.4,5.00,0.00,21.7,20.4,00.0,30.7,23.3,08.6,0000.0,0001.09,0001.69,0000.91
2022-11-23 20:41:00,,0819.3,4.99,0.00,21.7,20.3,00.0,30.7,23.4,08.4,0000.0,0001.10,0001.80,0000.90
2022-11-23 20:42:00,,0819.3,5.00,0.00,21.7,20.3,00.0,30.7,23.4,08.6,0000.0,0001.09,0001.79,0000.90
2022-11-23 20:43:00,,0819.4,5.01,0.00,21.7,20.3,00.0,30.7,23.4,08.7,0000.0,0001.09,0001.71,0000.90
2022-11-23 20:44:00,,0819.4,4.99,0.00,21.7,20.3,00.0,30.7,23.3,08.7,0000.0,0001.10,0001.70,0000.90
2022-11-23 20:45:00,,0819.4,4.99,0.00,21.7,20.3,00.0,30.7,23.3,08.4,0000.0,0001.10,0001.71,0000.91
2022-11-23 20:46:00,,0819.4,5.01,0.00,21.7,20.3,00.0,30.7,23.3,09.1,0000.0,0001.11,0001.70,0000.91
2022-11-23 20:47:00,,0819.4,5.02,0.00,21.7,20.3,00.0,30.7,23.4,09.5,0000.0,0001.10,0001.64,0000.92
2022-11-23 20:48:00,,0819.4,4.99,0.00,21.7,20.3,00.0,30.7,23.4,09.4,0000.0,0001.10,0001.64,0000.92
2022-11-23 20:49:00,,0819.3,4.99,0.00,21.7,20.3,00.0,30.7,23.4,08.8,0000.0,0001.09,0001.57,0000.93
2022-11-23 20:50:00,,0819.4,5.02,0.00,21.7,20.3,00.0,30.7,23.4,08.5,0000.0,0001.10,0001.57,0000.93
2022-11-23 20:51:00,,0819.4,4.98,0.00,21.7,20.3,00.0,30.7,23.3,09.0,0000.0,0001.09,0001.54,0000.93
2022-11-23 20:52:00,,0819.4,5.00,0.00,21.7,20.3,00.0,30.7,23.4,08.4,0000.0,0001.09,0001.47,0000.95
2022-11-23 20:53:00,,0819.4,5.00,0.00,21.7,20.3,00.0,30.6,23.3,08.6,0000.0,0001.10,0001.46,0000.96
2022-11-23 20:54:00,,0819.5,5.01,0.00,21.6,20.2,00.0,30.6,23.3,08.5,0000.0,0001.11,0001.59,0000.95
2022-11-23 20:55:00,,0819.4,5.00,0.00,21.6,20.2,00.0,30.6,23.2,08.6,0000.0,0001.12,0001.67,0000.95
2022-11-23 20:56:00,,0819.4,5.01,0.00,21.6,20.2,00.0,30.6,23.4,08.8,0000.0,0001.10,0001.63,0000.93
2022-11-23 20:57:00,,0819.4,5.01,0.00,21.6,20.2,00.0,30.6,23.4,08.8,0000.0,0001.12,0001.69,0000.93
2022-11-23 20:58:00,,0819.4,5.00,0.00,21.6,20.2,00.0,30.6,23.3,09.0,0000.0,0001.12,0001.71,0000.92
2022-11-23 20:59:00,,0819.3,4.99,0.00,21.6,20.2,00.0,30.6,23.3,08.9,0000.0,0001.12,0001.83,0000.92
